Hauptseite
METAR-TAF:

METAR-TAF

Flughäfen :

Militärflugplatz Alpnach

Alpnach, Schweiz

Breite: 46-56-19N, Länge: 8-17-03E, Höhe: 440 m

Beobachtung

Neuester Wetterbericht von vor 24 Minuten, um 07:50 UTC
Wind 2 kt aus unterschiedlichen Richtungen
Temperatur 21°C
Luftfeuchtigkeit 78%
Luftdruck 1023 hPa
Sichtweite 10 km oder mehr

METAR: LSMA 190750Z AUTO VRB02KT 9999NDV NCD 21/17 Q1023 RMK

Zeit: 10:14 (08:14 UTC)


TAF: fehlend

Wetterbeobachtungen und Prognosen von mehr als 4000 Flughäfen (METAR und TAF Bericht).

Die verfügbaren Stationen werden durch gelbe und rote Markierungen auf der Karte dargestellt.

Führen Sie die Maus auf sie, um den Namen der Station zu sehen.

Darauf klicken, um die Beobachtung von Wetterbeobachtungen und Prognosen zu sehen.

Um die Karte zu ändern : klicken Sie auf den grünen Tasten mit einem schwarzen Kreuz Zum Vergrößern, auf den grünen Button mit einem Gedankenstrich zu verkleinern, oder auf die grünen Pfeile für benachbarte Karten.


METAR-TAF: